Theta_e
338 337 336 334 333 332 331 330 330 328 327 327 325 323 322 321 320 320 320 320 320 319 318 318 317 317 316 313 313 313 313 313 314 314 313 313 312 312 312 312 310 310 310 310 310 309 309 307 308 309 310 310 309 309 309 308 309 309 309 307 306 308 307 306 303 303 306 309 308 306 307 307 305 305 304 305 306 307 308 309 309 309 309 309 308
336 336 335 332 331 332 331 330 329 328 327 325 323 321 321 321 322 320 320 319 319 318 317 317 316 316 314 312 313 313 313 313 313 314 312 311 312 311 311 310 310 310 310 309 310 310 310 308 307 309 309 309 309 308 309 308 308 307 307 307 306 307 308 306 304 303 303 307 306 307 306 307 303 305 304 304 304 306 305 306 308 309 308 308 307
336 335 333 331 331 331 330 329 328 327 324 322 321 321 321 322 321 321 319 318 318 318 317 316 316 315 313 312 312 312 312 312 313 313 312 311 310 311 311 310 309 309 308 308 307 309 309 309 308 309 310 309 309 309 309 308 308 307 307 307 307 307 308 308 305 303 303 304 306 304 305 305 304 303 303 304 306 306 304 306 307 308 308 308 307
334 334 332 331 330 329 328 328 327 326 323 321 320 321 321 321 321 320 319 318 317 318 318 316 316 315 313 312 312 312 312 313 312 312 311 311 310 309 309 310 310 309 308 307 307 308 308 307 308 309 309 308 307 308 308 308 307 307 307 307 308 307 308 308 307 305 304 303 304 303 304 303 304 304 303 304 304 304 305 307 308 307 307 306 306
332 332 331 329 329 328 328 326 324 323 321 320 321 321 322 322 322 319 318 318 318 318 317 317 315 314 313 311 311 312 312 311 311 311 311 311 310 310 310 309 310 309 309 309 308 308 308 307 307 308 308 308 308 307 308 308 306 307 307 306 306 307 307 307 306 306 304 303 303 304 305 304 304 304 303 301 302 303 305 305 306 306 306 307 307
330 330 330 328 327 327 327 325 323 321 320 320 320 321 321 322 321 320 318 317 318 317 316 316 314 312 311 311 312 311 310 311 310 310 310 310 311 311 311 310 309 308 308 308 308 308 307 307 307 307 307 308 308 309 309 308 307 306 306 306 305 306 306 306 306 305 304 303 303 302 304 302 302 303 302 302 301 301 303 305 306 306 306 306 306
330 329 329 328 327 326 326 324 322 321 320 320 320 320 321 321 320 319 318 317 317 316 316 315 314 312 311 312 311 310 310 310 310 310 310 310 310 310 309 308 308 308 308 308 308 308 307 306 307 307 307 307 307 307 309 309 307 305 306 305 305 305 305 305 304 303 304 303 302 302 301 302 303 300 301 302 302 302 302 302 303 305 305 305 303
329 329 329 327 327 326 326 324 322 321 321 320 319 320 320 320 320 319 318 317 316 315 314 314 313 311 311 311 311 311 311 310 310 310 310 310 310 309 309 309 308 308 308 308 308 307 306 305 305 304 304 304 305 304 305 307 308 304 304 304 304 304 303 303 303 302 303 302 301 299 300 300 301 302 302 301 300 301 302 302 301 302 303 305 305
329 329 328 327 326 326 325 324 323 321 320 320 319 319 319 320 320 319 318 317 317 315 315 313 311 311 310 311 311 311 311 310 310 310 310 310 310 309 308 307 307 307 307 307 307 305 305 304 303 301 302 300 299 300 299 300 304 303 302 302 302 302 302 302 302 300 302 301 300 301 299 299 299 299 298 298 297 298 302 303 302 303 303 303 304
328 328 328 327 327 326 325 323 321 321 320 320 319 318 318 319 319 318 317 317 316 315 314 313 311 311 310 310 311 311 311 311 311 306 307 309 309 308 308 308 307 307 306 306 305 303 302 301 301 301 301 300 299 296 295 296 297 301 300 300 299 300 300 300 299 299 301 300 299 299 297 297 298 298 298 299 300 301 301 302 301 301 303 302 304
329 328 327 327 327 326 324 323 321 319 320 319 318 317 317 318 318 317 317 316 315 315 313 311 311 310 311 310 310 311 311 308 296 295 297 302 309 309 308 307 308 307 307 306 304 302 302 300 302 303 302 301 301 295 294 294 294 293 295 297 300 300 298 297 298 299 300 301 300 299 297 297 298 299 299 298 300 300 300 302 301 300 300 299 297
328 327 327 326 326 324 323 321 319 317 317 316 316 316 316 317 317 317 316 316 315 315 313 311 311 311 311 310 310 311 310 299 294 294 295 294 300 313 309 309 308 307 307 306 305 305 304 305 305 306 307 306 304 300 299 295 293 293 292 293 292 293 294 299 298 298 300 300 298 298 298 298 298 298 298 299 298 299 301 302 301 300 300 299 299
328 327 327 326 325 322 319 316 316 316 316 316 316 316 316 317 318 317 316 316 315 314 312 311 311 311 311 310 310 310 307 295 294 294 293 294 292 301 309 309 308 307 307 305 304 304 304 303 303 302 301 302 307 305 304 300 297 295 295 294 294 293 290 289 292 300 301 301 299 298 298 298 297 298 300 299 300 299 300 300 301 300 300 300 299
329 327 326 324 322 320 318 315 314 315 315 315 315 315 316 317 318 317 316 315 314 313 313 311 311 311 311 311 311 310 306 296 294 294 294 292 292 296 309 308 308 307 306 306 306 305 304 304 303 303 303 302 301 302 304 305 306 305 304 302 303 302 296 291 290 290 297 302 300 298 299 300 298 299 301 301 299 298 298 299 301 299 300 300 303
325 324 323 324 323 321 318 316 314 314 314 314 315 315 316 317 317 317 315 314 313 312 312 310 310 311 311 311 310 307 304 293 293 293 293 293 292 295 309 308 307 306 306 306 307 307 306 306 305 303 302 299 298 296 300 303 307 306 306 306 307 306 306 302 302 302 301 301 301 300 300 301 301 301 302 301 300 300 301 301 302 301 302 304 304
319 319 318 319 319 318 317 315 315 314 314 314 315 315 316 317 316 316 315 314 314 313 312 311 310 310 310 310 308 305 302 292 292 293 293 293 291 306 307 306 305 305 305 305 305 305 305 305 305 304 303 300 296 289 293 298 303 306 304 305 305 304 305 305 299 299 303 304 304 303 303 303 298 303 304 303 302 301 301 303 303 302 300 299 298
317 317 316 317 318 318 316 315 314 314 314 314 315 317 317 316 316 316 314 313 312 312 312 311 310 310 309 309 307 303 300 295 292 292 292 292 295 306 306 304 304 304 305 305 304 304 305 305 305 304 302 299 293 288 290 292 304 304 304 304 304 303 302 309 298 293 293 293 293 293 292 292 292 292 292 291 298 301 301 299 298 299 298 296 298
316 316 316 317 317 318 317 315 314 314 315 314 315 317 317 317 316 315 313 312 311 312 311 310 309 310 309 309 306 302 300 296 292 292 292 292 296 305 304 304 304 304 303 304 304 305 300 300 302 305 303 300 289 289 289 295 305 303 304 303 302 301 301 301 304 309 294 292 292 292 292 292 292 292 292 292 293 297 301 297 299 299 297 297 296
316 314 314 316 316 317 316 316 316 315 315 315 317 317 316 316 316 315 313 312 312 311 310 309 308 309 310 309 305 302 301 297 292 292 292 292 296 301 303 303 302 303 303 303 305 302 298 298 300 299 301 298 287 290 289 294 304 304 303 303 300 300 299 300 301 302 303 304 305 307 305 301 306 306 302 294 293 300 302 301 300 299 297 297 297
319 317 316 316 316 315 316 316 316 314 313 316 318 317 316 316 315 314 313 312 310 310 308 308 308 308 308 307 305 304 300 299 296 292 292 292 292 301 304 304 301 302 302 302 303 303 300 300 298 289 288 288 289 287 289 289 297 306 303 301 299 297 299 299 300 302 302 302 302 303 303 303 303 304 304 304 304 304 303 302 301 300 299 298 298
319 317 317 317 317 316 316 316 315 315 315 317 318 316 315 314 313 313 313 312 311 311 309 307 306 306 306 306 305 304 302 300 298 291 292 292 292 294 302 305 304 303 302 301 302 303 303 300 299 292 289 289 290 288 288 289 290 301 303 299 300 300 293 297 300 301 303 303 302 302 302 303 304 303 302 303 302 302 302 303 302 302 300 298 298
313 314 313 314 314 314 315 315 315 315 315 317 315 314 314 313 312 309 307 309 307 305 305 304 303 303 304 304 304 304 303 301 300 292 292 292 292 291 299 305 308 304 303 302 302 303 303 304 301 294 289 289 289 290 289 288 288 301 301 288 287 287 297 297 299 301 302 302 300 301 302 301 301 302 302 302 302 302 302 302 303 303 302 302 300
312 312 312 313 313 314 314 314 314 314 314 315 314 312 312 310 309 309 307 306 306 305 304 304 303 303 304 305 305 305 303 301 297 298 292 292 292 292 291 296 294 306 304 302 303 304 305 305 299 292 289 289 289 289 289 289 290 298 286 287 289 288 290 297 299 302 300 301 301 301 301 301 301 300 301 301 303 304 302 303 303 303 303 303 303
313 313 312 313 312 312 312 313 313 314 313 312 312 310 310 310 308 307 306 305 304 304 303 303 303 302 302 303 304 304 303 301 298 296 297 291 292 291 291 290 290 300 302 305 304 305 305 304 298 289 290 288 289 289 289 289 295 288 287 289 288 289 296 299 300 301 301 299 300 300 301 301 301 301 301 303 302 304 304 304 304 304 303 303 303
313 312 313 313 312 311 311 311 311 311 312 311 309 308 307 307 304 304 305 304 304 303 303 303 302 302 301 301 302 302 305 303 303 298 294 293 291 291 291 291 291 289 302 305 301 300 293 290 289 289 289 289 289 288 290 290 288 287 288 288 292 297 300 301 301 301 300 299 299 301 301 301 302 302 304 304 305 305 304 304 305 305 304 304 304
312 311 310 310 310 309 309 309 309 310 309 309 308 307 306 305 304 304 304 304 305 304 303 303 302 302 302 302 302 302 304 306 305 303 298 296 294 291 291 290 292 292 293 299 291 287 288 289 288 289 289 291 297 297 298 300 292 289 288 290 298 299 301 300 301 300 300 300 300 300 300 301 302 304 304 304 303 301 302 302 302 302 303 302 302
311 310 308 308 308 308 307 307 307 308 309 308 307 307 306 306 305 303 303 304 305 305 304 303 303 302 302 302 303 303 304 305 306 305 302 301 300 299 297 297 293 292 297 302 298 299 296 298 297 294 294 292 292 294 294 295 298 298 297 298 299 301 302 301 300 301 300 300 300 301 301 302 303 303 302 301 301 302 303 301 301 301 302 302 301
312 310 308 308 307 308 308 299 304 307 308 308 307 306 306 306 304 303 303 303 303 304 304 303 303 303 303 303 304 304 304 304 305 305 304 303 302 302 301 301 302 301 301 301 302 302 302 296 296 300 299 299 299 298 298 300 298 297 299 301 302 302 300 297 297 302 303 302 301 301 301 302 300 301 301 301 300 301 302 301 300 301 301 302 300
312 310 308 307 307 307 306 305 306 306 307 308 308 308 307 306 305 304 306 306 306 305 305 304 304 306 306 305 304 303 303 303 305 300 307 298 301 303 302 302 303 303 300 295 301 302 301 300 299 297 298 297 294 299 299 298 299 301 303 303 302 301 302 301 301 301 303 301 300 301 299 300 300 300 300 299 300 300 302 301 301 301 301 301 299
310 308 307 306 306 306 305 306 306 305 305 305 307 305 291 294 303 305 304 299 296 293 298 309 309 307 306 306 307 304 304 306 298 296 295 295 294 293 295 296 296 300 296 291 298 301 301 300 301 297 298 299 298 298 300 301 301 301 302 297 301 299 299 300 300 301 302 299 299 300 299 299 300 300 299 298 300 300 300 297 300 301 300 299 298
309 308 307 306 304 306 305 305 305 305 305 305 307 305 304 300 290 288 295 296 292 291 290 289 289 290 304 307 303 290 295 294 293 294 293 292 290 291 290 290 290 289 291 298 297 298 299 297 298 299 298 300 299 300 299 297 297 298 300 299 300 299 296 300 300 300 301 295 299 300 299 299 299 300 298 299 299 299 300 300 300 301 300 299 298
309 308 307 307 304 306 306 306 306 306 306 307 307 305 304 301 299 292 289 290 290 289 289 289 289 290 290 293 301 302 293 292 293 293 292 291 289 289 289 288 288 289 288 292 296 297 298 298 297 299 300 299 298 298 300 300 299 299 298 297 298 299 300 298 300 302 300 300 298 297 297 296 299 299 299 298 296 298 300 298 299 300 300 300 299
311 310 309 306 305 304 305 306 307 307 307 306 306 306 305 304 301 300 299 290 289 289 290 290 290 290 290 290 292 294 293 292 291 292 292 290 289 288 288 288 288 289 291 295 296 295 296 297 297 299 299 298 300 300 300 301 300 299 300 299 298 299 300 302 302 301 299 299 297 298 298 298 298 297 296 297 298 297 297 297 299 299 299 298 296
313 312 309 307 306 306 306 307 306 306 307 306 307 306 304 304 303 300 299 297 296 293 291 290 289 289 289 290 290 290 290 290 290 290 289 289 288 289 290 290 287 288 292 297 296 294 296 298 298 299 300 300 300 299 300 300 300 300 300 300 301 301 302 303 303 300 299 300 299 298 298 298 297 298 297 298 298 298 296 297 298 296 298 298 297
317 303 295 300 308 306 307 306 306 306 307 307 306 306 305 304 303 301 300 298 298 297 298 297 293 293 294 291 288 288 289 289 289 289 288 288 288 290 290 293 292 294 295 297 297 297 295 296 297 298 300 300 300 299 299 302 301 300 299 300 300 300 300 301 301 303 300 301 299 299 297 297 299 299 297 297 297 297 296 297 296 299 298 297 298
317 313 309 306 308 308 307 308 309 307 307 307 307 307 306 305 304 303 302 300 299 299 297 298 297 291 290 289 288 288 288 288 288 288 288 288 288 290 293 292 292 293 294 294 295 296 298 297 297 298 299 300 301 301 301 300 300 300 301 301 296 300 300 299 300 299 297 301 298 296 297 298 298 298 299 299 299 298 298 298 298 297 297 297 295
314 311 309 308 309 308 309 309 308 308 302 304 308 308 306 305 303 305 301 301 299 300 300 300 297 295 293 294 289 288 288 288 288 288 288 288 288 291 294 294 294 294 294 295 295 295 295 296 298 299 300 300 300 300 301 301 302 302 299 300 301 301 300 300 299 296 298 296 295 297 298 297 299 298 298 297 297 297 297 298 297 296 295 295 293
315 311 310 310 309 309 308 308 308 301 304 305 306 305 304 305 304 302 302 303 300 297 297 297 293 294 294 294 294 292 289 288 288 288 288 288 288 291 294 294 294 294 295 296 296 297 296 296 297 298 299 300 300 301 301 302 301 301 302 301 300 295 296 298 295 297 295 297 297 298 298 297 298 298 297 297 297 297 297 296 297 297 296 295 295
315 302 297 297 301 310 309 307 305 306 305 305 305 304 302 303 303 304 303 300 298 298 299 299 297 295 295 296 295 294 291 292 293 291 291 290 292 293 293 294 295 295 295 296 296 296 297 298 299 299 299 300 300 301 301 301 301 301 303 299 298 300 299 298 295 295 297 297 297 298 298 298 298 298 297 297 297 297 297 296 297 296 296 296 296
312 309 300 296 305 306 305 303 306 304 302 305 306 305 303 302 304 303 303 302 300 300 300 299 298 297 297 297 295 295 295 295 295 295 294 293 292 293 293 294 295 295 295 295 296 297 298 298 299 299 299 300 300 300 300 300 301 300 299 299 298 297 298 297 297 297 297 297 297 297 297 297 298 298 298 298 298 298 297 296 296 296 296 296 296
313 309 300 300 302 306 305 305 304 304 305 302 305 304 303 303 304 302 303 302 301 300 300 300 299 298 297 297 293 293 297 296 296 297 295 295 295 295 295 295 295 296 297 297 297 296 297 297 297 298 299 299 299 299 300 300 300 299 297 298 296 296 296 296 297 297 297 296 297 297 297 298 298 298 297 297 296 296 297 297 297 297 296 296 296
311 308 305 305 302 306 306 304 305 305 304 304 304 305 303 303 304 302 300 302 299 299 300 300 300 299 296 292 291 292 298 298 298 298 299 297 296 296 295 296 297 297 297 298 298 297 296 296 297 297 296 295 296 296 297 300 299 298 298 297 294 296 296 297 296 296 296 297 296 297 297 297 297 297 297 295 297 297 297 297 297 296 296 296 296
308 306 305 303 304 305 304 304 304 303 302 302 306 300 303 304 303 303 301 299 299 299 300 300 299 299 297 290 291 290 299 300 296 299 299 297 296 296 296 297 298 299 299 300 299 298 297 296 294 296 295 296 297 297 297 297 295 296 297 296 295 296 296 296 296 296 296 296 296 295 294 295 295 296 296 296 296 297 297 296 295 296 295 296 295
303 303 302 301 302 302 301 302 301 300 302 299 299 301 302 304 303 303 301 300 300 299 299 299 299 298 297 293 291 294 299 299 299 299 299 296 297 296 297 298 299 299 299 298 298 298 297 296 296 297 299 299 301 303 302 301 301 296 297 297 296 295 296 296 296 296 296 295 294 294 294 294 295 296 295 295 296 295 295 294 294 295 294 294 294
304 303 301 302 301 301 301 301 300 301 298 299 302 303 301 303 303 303 302 302 298 299 300 298 298 298 296 297 296 296 298 298 296 297 297 298 297 297 298 298 299 298 297 297 297 300 298 296 298 298 297 298 302 301 301 301 303 301 298 298 297 297 296 295 294 295 294 293 294 294 294 295 294 295 295 295 294 294 294 294 293 291 293 293 293
300 300 300 300 299 298 299 301 298 301 301 302 303 303 303 302 303 302 301 301 299 299 299 298 298 297 296 296 296 295 297 297 297 297 296 297 297 297 297 297 297 297 296 296 297 299 298 298 298 296 296 296 299 300 301 302 303 302 299 297 295 292 293 293 294 293 294 293 293 293 294 293 293 293 292 294 294 293 293 292 292 292 292 292 292
302 301 299 299 299 298 299 300 299 300 301 301 302 301 301 301 302 301 297 299 298 296 298 298 298 298 298 297 296 296 296 296 296 296 296 297 298 298 297 298 296 296 296 298 299 299 296 296 296 295 295 294 297 300 302 300 298 293 291 290 289 289 288 288 292 293 292 291 292 293 293 292 293 293 292 292 291 291 291 291 291 291 291 290 290
302 301 301 300 299 299 298 299 298 295 298 298 298 299 298 298 300 298 297 296 296 296 297 297 298 297 296 297 296 296 295 296 296 296 296 297 297 297 297 297 296 298 298 299 297 297 297 295 296 295 293 293 294 297 297 295 292 290 288 286 284 284 283 285 289 289 288 289 291 291 292 292 292 292 291 290 290 290 290 290 289 289 288 287 287
301 300 299 300 299 299 298 298 297 299 299 298 297 297 296 298 298 297 297 296 296 297 298 298 298 297 296 296 295 295 295 294 296 296 296 296 297 297 298 300 300 299 298 297 297 297 297 297 295 294 294 293 293 292 290 290 288 287 285 283 282 281 282 282 285 285 284 287 289 291 291 290 289 289 288 288 288 289 288 287 287 286 285 286 286
303 301 300 300 301 300 299 298 298 299 298 297 296 296 295 296 296 296 296 296 296 296 297 297 296 296 296 295 294 295 295 294 295 296 296 297 298 300 301 300 300 299 298 298 297 295 294 294 293 291 291 290 289 288 287 285 284 283 282 281 280 280 281 281 283 282 283 285 287 289 289 288 287 287 287 287 287 286 285 284 284 284 285 284 284
299 301 300 300 299 298 299 299 299 299 298 297 297 296 295 296 296 296 295 295 295 295 295 295 296 296 296 297 296 296 296 297 297 297 297 298 299 300 300 300 299 300 298 297 295 294 293 292 290 289 288 286 286 284 283 281 281 280 279 279 279 279 280 280 281 282 282 284 285 287 287 286 286 285 286 286 285 284 283 283 283 283 283 282 283
Wind_Speed
16 15 13 13 14 15 14 12 14 13 12 11 10 10 10 10 10 10 11 10 10 9 9 9 9 8 8 8 8 8 8 8 8 8 7 8 7 8 8 8 8 7 7 7 6 7 7 8 7 6 5 4 3 3 4 4 4 5 5 6 6 6 7 6 6 7 6 6 7 8 9 11 11 12 14 13 13 13 13 12 13 12 11 11 12
14 14 13 12 14 14 14 13 14 14 12 12 11 9 9 9 9 10 10 10 9 9 10 8 8 8 8 9 9 9 9 9 8 7 8 9 8 6 7 8 7 7 6 7 6 6 7 7 7 6 5 5 4 5 4 4 5 5 5 6 6 6 6 6 7 7 9 8 8 8 9 10 10 12 13 15 14 14 14 13 12 12 11 12 12
12 11 13 13 14 13 14 13 14 16 13 11 11 10 10 10 9 10 10 10 9 9 9 9 9 9 8 9 9 9 10 9 8 9 9 9 9 8 7 8 8 8 7 7 7 7 7 6 6 4 3 4 4 4 4 5 5 5 6 5 6 6 6 6 7 8 9 8 8 9 9 9 10 12 14 13 13 13 14 13 13 11 11 12 12
13 11 12 14 15 15 14 14 16 14 12 10 11 11 11 10 10 10 11 10 10 9 10 10 9 9 9 10 10 10 10 9 9 9 9 9 9 9 9 8 7 7 7 8 7 7 7 6 5 4 4 4 4 5 5 5 5 6 6 5 5 6 6 6 6 7 8 9 8 9 9 9 9 11 11 13 13 13 12 12 12 12 12 12 12
14 13 15 15 15 15 15 15 14 12 11 10 12 11 11 10 10 11 11 11 11 10 9 9 9 9 9 10 10 10 10 10 10 10 9 9 9 9 8 8 7 7 7 7 7 6 6 5 5 4 4 4 4 4 5 6 6 6 6 6 6 6 6 6 6 6 7 8 8 8 8 9 9 10 12 13 13 12 13 13 12 11 12 12 11
14 14 14 15 15 16 16 15 13 12 11 11 12 11 11 10 10 10 11 11 11 10 10 8 8 9 10 10 10 10 10 10 10 10 10 9 9 8 8 8 8 8 8 7 7 6 5 5 4 4 4 4 4 3 4 5 5 6 6 6 6 6 6 6 6 7 6 7 8 9 8 9 10 10 13 13 13 12 12 12 12 11 11 11 11
14 15 15 16 16 16 15 13 12 11 11 11 10 10 10 10 10 11 11 11 11 10 10 9 9 9 10 10 11 10 10 10 10 10 10 9 9 9 8 8 8 7 8 8 7 6 6 5 5 4 5 5 4 4 3 3 4 6 6 6 7 7 7 6 7 7 6 7 7 8 9 9 10 11 12 13 13 12 12 12 12 11 11 12 12
15 14 15 15 15 15 14 13 12 11 10 11 11 10 10 10 10 10 11 11 11 11 11 10 9 9 10 10 10 10 9 9 10 9 9 9 9 9 8 8 8 8 8 8 7 6 6 6 6 6 6 6 5 5 6 5 4 5 6 6 7 7 7 7 7 7 6 7 7 8 9 9 9 10 11 12 12 11 11 12 13 13 13 12 12
15 16 15 15 15 15 15 14 11 11 12 11 12 11 10 9 10 10 10 10 9 10 10 10 10 10 11 10 11 9 9 8 8 8 9 9 9 9 9 8 8 8 8 8 7 7 6 6 6 7 6 6 6 6 6 5 5 5 6 7 7 7 7 7 7 7 7 7 7 8 8 9 10 11 12 12 13 13 13 12 11 12 13 12 11
16 16 16 15 15 15 16 14 14 13 13 12 12 12 10 10 10 10 11 11 10 10 10 10 10 11 11 11 10 9 8 6 5 7 8 8 9 8 7 8 8 8 8 8 7 7 7 7 6 7 6 5 4 3 4 5 5 5 4 5 7 6 7 7 7 7 7 7 8 8 9 9 10 11 11 12 12 13 13 12 12 13 12 12 10
15 16 16 16 16 16 15 15 13 13 12 11 11 12 11 9 9 10 10 10 11 10 10 11 10 11 11 11 11 8 7 6 9 10 6 6 8 8 8 7 7 7 7 7 7 7 7 8 7 7 6 6 5 6 6 3 2 0 1 3 4 4 6 6 6 7 7 7 7 8 8 9 10 10 10 12 12 13 12 12 12 12 13 14 14
16 16 16 16 17 17 15 16 13 13 12 12 12 11 10 10 10 10 10 11 10 10 10 11 11 11 10 11 10 8 7 8 11 8 9 9 8 4 7 7 7 7 7 6 6 6 6 5 4 4 3 2 4 6 6 8 8 7 6 6 5 5 4 3 5 6 7 6 8 7 8 8 9 9 10 11 12 13 12 12 12 13 13 13 12
16 17 16 17 17 16 14 13 13 12 12 12 11 10 10 11 10 11 12 10 10 11 11 11 11 11 11 11 10 9 9 9 10 8 7 7 7 5 7 6 7 7 6 6 6 6 6 5 5 5 3 4 5 4 7 8 9 10 11 9 8 8 9 8 8 6 6 6 6 7 7 8 8 9 10 11 12 12 12 11 12 12 12 12 11
16 16 16 17 16 15 14 13 13 12 12 12 11 11 10 11 11 11 11 11 10 10 10 11 11 11 11 11 10 10 10 9 10 8 5 5 7 8 5 6 6 6 6 5 5 6 6 6 5 4 3 2 3 3 4 2 3 6 7 8 8 9 9 10 10 11 9 6 6 6 6 6 7 8 9 10 11 12 12 12 13 13 13 12 11
15 15 15 15 15 15 14 13 14 13 12 12 11 11 11 11 11 11 11 11 10 10 10 11 10 11 11 10 10 10 9 11 11 8 4 2 7 8 4 6 6 6 5 5 4 4 2 3 4 4 3 4 4 4 4 4 5 3 2 1 2 1 3 0 2 3 2 3 4 4 4 4 5 6 7 8 10 10 11 12 12 13 12 11 9
13 12 13 13 14 14 14 13 13 13 12 12 12 12 12 11 12 11 11 11 9 9 9 9 10 11 11 11 10 11 9 12 11 8 4 1 4 4 5 5 5 6 5 5 5 4 4 4 4 4 4 4 4 4 4 5 6 5 1 2 1 0 1 4 5 7 5 4 4 5 5 6 8 8 7 7 8 9 10 10 9 10 11 10 10
11 11 12 12 12 13 14 14 13 13 13 12 12 13 13 13 12 11 11 11 10 10 10 10 10 10 11 11 11 11 10 11 12 10 7 4 1 3 5 5 5 6 5 6 5 4 3 1 1 5 4 4 3 5 5 5 6 3 2 2 1 2 4 1 10 11 11 12 14 15 15 14 14 16 14 14 10 8 9 10 10 11 10 11 11
11 11 11 12 12 12 13 14 14 13 12 13 13 12 12 10 11 10 11 11 11 10 10 10 10 10 11 11 11 11 10 10 13 11 11 10 6 4 6 6 6 6 6 5 5 4 4 5 8 1 5 4 3 4 6 7 5 1 2 2 2 3 3 5 5 4 13 15 15 16 15 14 15 16 15 15 12 8 9 10 11 10 10 10 11
12 11 11 11 11 12 12 13 14 14 13 13 13 13 12 11 10 10 10 10 9 10 10 10 10 10 10 10 12 12 11 10 12 12 11 11 6 4 5 6 6 6 6 5 5 5 5 3 5 6 6 5 4 3 6 6 5 1 3 3 3 3 4 7 6 8 7 6 3 4 6 10 9 4 3 9 12 5 8 9 9 10 10 11 11
12 11 11 11 11 11 11 11 11 12 12 12 12 10 9 10 12 11 10 9 9 9 10 9 10 9 8 9 9 9 10 8 9 11 12 10 8 5 6 6 7 7 6 6 6 6 6 5 4 5 6 5 2 1 4 4 5 4 3 3 3 4 6 7 8 8 10 7 7 5 5 6 6 5 6 7 7 8 8 8 9 9 9 10 10
11 12 12 12 12 11 10 10 11 11 10 11 10 8 9 10 11 11 7 5 7 7 8 6 7 7 6 8 8 8 8 10 9 11 11 10 8 5 6 5 7 7 7 7 7 6 7 7 6 7 7 5 3 1 4 6 5 5 3 3 4 5 6 7 9 13 7 6 6 5 6 6 6 6 7 7 7 8 8 8 8 9 9 9 9
8 8 8 11 10 11 10 10 10 9 9 11 12 11 9 7 6 8 9 9 10 9 9 8 8 8 8 8 8 8 9 13 9 10 11 10 9 8 8 2 5 3 7 7 7 6 7 8 7 8 8 7 4 3 2 6 8 6 4 1 7 8 6 8 9 9 6 5 6 6 6 6 7 7 8 7 7 8 9 8 8 9 8 8 9
11 10 7 7 8 10 10 11 10 8 9 12 12 11 9 9 8 9 9 10 10 11 11 10 9 9 8 7 7 8 10 10 12 11 12 11 11 10 7 8 9 7 6 7 7 5 5 7 8 11 9 8 6 4 4 5 7 2 3 5 7 10 7 7 9 5 5 5 5 6 6 6 6 7 8 8 7 8 8 8 9 9 9 8 9
14 12 11 11 11 11 11 10 9 8 10 10 13 13 12 11 11 10 10 9 10 10 9 9 9 9 9 9 9 9 10 10 11 14 12 14 11 11 7 10 7 5 7 4 5 4 6 8 9 11 9 8 5 5 5 5 4 6 7 8 9 9 7 9 6 4 5 5 5 5 5 6 6 7 7 8 8 7 8 8 9 9 9 8 9
13 12 12 12 12 11 11 10 9 10 11 11 11 10 11 10 9 10 10 10 10 10 9 9 9 9 9 9 9 9 9 10 10 12 14 13 14 12 9 8 7 3 5 2 10 8 10 14 12 10 9 8 6 4 5 8 10 10 9 11 9 7 9 5 4 4 5 4 4 5 5 6 6 6 7 7 7 7 7 7 8 7 9 9 9
11 9 10 10 10 11 11 10 9 9 10 9 9 9 10 10 9 9 10 10 10 10 10 10 10 10 10 10 10 10 10 9 10 11 11 12 12 12 10 8 7 5 5 6 4 3 2 8 9 8 6 3 4 5 6 6 11 11 11 10 7 9 5 3 4 4 4 5 5 5 5 6 6 6 7 7 7 7 7 8 8 8 8 8 8
12 10 10 10 10 10 12 10 9 10 10 9 9 9 9 9 10 10 10 10 10 10 10 10 10 10 10 10 10 10 10 10 10 11 12 11 10 9 7 6 6 3 4 6 6 6 8 6 4 6 3 5 8 7 8 3 5 7 8 8 8 7 3 1 3 5 4 4 5 5 5 6 6 6 7 7 7 7 7 8 8 8 9 9 8
13 12 12 11 10 10 9 10 11 9 10 10 9 9 9 10 10 10 10 10 10 10 10 10 10 10 10 10 10 10 10 11 11 12 13 13 12 11 10 10 9 8 8 7 7 7 6 5 4 5 5 6 7 7 7 8 8 8 8 8 8 6 1 1 3 5 6 4 5 5 5 6 6 6 7 7 7 8 8 8 9 9 8 9 8
13 12 10 9 8 8 8 9 9 9 9 9 8 9 10 10 8 8 9 8 9 10 10 8 9 9 9 9 9 10 10 11 12 11 12 13 13 12 12 11 10 9 10 7 7 8 7 7 7 7 7 7 5 7 8 8 8 8 8 5 5 5 6 7 7 6 3 3 5 5 6 6 7 7 7 7 8 8 8 8 8 8 9 8 9
12 11 10 9 9 9 10 10 9 10 10 9 9 4 12 10 3 6 8 6 6 8 5 3 5 8 8 8 8 9 11 10 11 16 16 16 10 5 6 10 7 6 11 8 5 6 8 7 7 6 8 8 7 7 6 8 7 7 6 7 5 6 6 4 4 5 2 3 5 6 5 6 7 7 7 8 8 8 9 8 9 8 8 9 9
10 10 11 10 10 11 10 9 9 9 9 10 10 8 7 7 12 13 3 12 10 10 11 11 14 13 6 4 5 11 6 13 16 16 16 15 13 12 12 12 12 9 8 10 4 4 4 5 6 7 8 8 7 7 7 5 3 3 5 4 6 6 4 5 6 3 3 3 5 5 5 6 7 7 7 8 8 9 9 8 8 8 8 9 10
10 10 10 10 10 9 10 10 10 10 11 11 11 10 10 7 4 11 12 10 11 11 10 11 13 12 12 11 6 8 9 11 16 17 17 15 14 13 12 12 10 9 5 1 6 5 4 4 4 6 7 7 6 7 6 6 6 6 6 5 5 5 5 5 5 4 4 4 3 3 4 5 7 7 8 8 8 8 8 8 8 9 9 9 9
11 11 10 11 10 10 10 10 10 10 11 11 11 10 11 10 8 5 6 10 10 10 9 10 11 11 13 14 14 12 9 8 10 12 14 14 13 12 11 10 10 8 7 3 5 5 6 8 8 8 8 6 7 7 7 7 7 6 6 6 4 6 6 6 4 4 5 6 4 4 4 4 5 7 5 6 6 5 7 6 8 8 9 9 8
13 11 11 12 12 11 10 11 10 10 10 11 11 10 10 9 9 8 8 5 4 7 10 9 11 14 14 13 12 13 11 10 10 10 11 11 11 11 10 6 6 5 1 5 6 5 7 8 8 8 8 8 7 6 6 7 7 7 6 6 6 5 5 5 5 6 4 6 4 4 4 5 6 5 5 6 6 6 5 6 8 6 7 8 8
11 12 16 13 12 11 10 10 10 10 10 10 10 10 9 9 10 11 11 9 8 6 6 3 3 7 9 10 11 12 11 10 9 9 9 9 9 10 10 5 2 2 3 7 8 8 8 8 8 8 7 7 6 6 5 5 6 6 6 6 6 6 6 6 6 6 5 5 4 4 5 5 8 6 6 6 6 6 6 6 6 9 9 9 9
10 9 12 12 10 9 9 9 7 8 8 8 8 7 7 8 9 9 9 9 9 8 7 7 6 7 15 14 14 13 13 12 9 7 7 8 8 8 4 4 4 6 7 8 9 8 7 7 7 8 7 6 6 5 5 6 6 6 6 6 4 6 6 6 5 5 4 4 4 4 6 5 5 5 5 6 8 7 5 7 7 6 7 9 6
8 8 9 9 9 9 8 7 8 8 8 8 9 7 7 8 9 9 9 10 8 7 6 8 8 5 6 6 11 14 16 13 11 9 6 5 5 5 5 5 6 6 7 7 8 8 8 8 8 8 7 6 6 6 5 5 5 5 5 6 6 6 4 4 3 3 3 4 5 5 7 6 6 6 6 6 6 5 6 7 5 6 5 6 6
9 9 9 9 9 9 9 9 9 6 7 7 7 8 9 8 7 8 7 8 8 8 9 9 9 9 8 7 8 6 9 12 15 12 8 5 2 3 6 6 6 6 5 6 7 7 8 8 8 8 8 7 6 6 5 4 5 4 4 4 5 4 3 2 1 3 4 4 6 6 6 6 5 5 6 6 6 7 6 6 7 7 6 6 7
8 7 13 12 9 8 9 9 8 7 7 7 7 8 8 8 8 7 7 8 7 9 9 10 9 8 8 9 8 9 10 6 4 5 5 4 5 6 6 6 5 4 5 5 6 7 7 7 7 7 7 6 6 5 4 4 3 4 3 1 1 1 1 1 3 4 5 5 5 5 6 6 6 7 6 7 7 6 5 5 5 6 7 7 7
7 6 9 14 9 6 7 8 8 7 7 7 8 9 9 8 9 10 10 10 9 8 8 9 9 8 9 10 10 9 8 8 8 8 7 6 6 8 7 7 6 5 5 5 5 6 5 5 5 6 6 5 4 4 5 5 5 3 3 1 2 2 2 2 4 4 4 4 5 6 7 6 7 7 7 7 8 7 6 6 6 6 6 7 6
6 7 8 8 7 8 8 8 8 8 8 8 8 8 8 7 8 8 9 8 7 8 7 7 7 8 9 12 16 13 8 8 7 7 8 8 8 9 9 8 7 6 5 4 5 6 6 6 6 5 4 4 5 5 6 6 4 3 2 1 2 2 4 4 4 4 5 5 5 5 6 6 7 7 7 6 7 7 7 6 7 6 6 6 6
7 6 6 7 6 9 9 9 8 7 6 8 8 8 7 6 7 7 7 7 8 8 7 7 7 7 9 18 16 14 8 7 7 8 7 6 7 7 7 7 7 6 6 5 5 6 6 5 4 3 3 3 4 4 4 4 3 2 2 2 3 4 4 4 4 4 4 4 4 5 5 5 5 5 6 8 7 6 6 6 6 6 7 7 7
7 7 8 9 9 9 8 8 7 6 6 7 4 4 6 7 8 7 8 8 7 7 7 7 6 6 9 13 13 12 6 6 5 5 5 6 6 6 7 7 7 7 6 5 4 3 3 2 2 3 3 4 5 4 3 3 2 2 3 3 3 4 4 4 4 4 4 4 4 4 5 4 5 5 6 6 6 6 6 6 6 7 6 6 7
7 7 7 7 7 6 7 7 6 6 6 5 5 6 7 7 7 6 7 7 7 7 6 6 6 6 6 6 7 8 6 5 5 6 6 6 6 6 6 6 6 6 4 4 3 3 2 1 2 3 5 4 3 3 3 2 1 1 2 4 4 4 4 4 3 3 3 3 4 4 4 5 5 5 5 5 5 6 6 5 6 6 7 8 8
6 6 7 6 6 6 6 6 7 7 8 7 7 8 8 7 6 6 6 7 7 7 7 6 6 6 6 7 7 7 6 5 5 4 5 5 6 6 5 5 4 5 4 3 3 3 3 2 2 0 0 2 2 3 3 3 4 3 1 2 2 2 3 4 3 3 3 3 3 4 4 5 4 5 5 5 5 6 6 6 7 8 7 7 7
6 6 7 6 6 6 6 5 5 6 6 7 7 7 6 5 6 7 7 7 7 6 6 6 6 6 6 5 5 5 5 5 4 5 4 4 5 4 4 5 4 3 3 2 2 3 1 0 0 0 0 0 2 3 3 3 1 4 6 7 6 5 6 6 5 4 3 3 3 4 4 4 5 5 6 5 5 6 6 6 6 6 7 8 7
6 6 6 7 6 6 6 6 5 6 6 6 6 6 5 6 7 6 5 6 6 6 5 5 5 5 5 6 6 5 5 5 5 6 6 6 4 4 4 3 3 2 3 4 3 1 2 1 0 0 1 0 1 1 1 3 6 7 7 7 7 7 6 4 4 4 4 5 4 4 4 4 5 5 5 6 6 6 6 7 7 7 7 8 8
6 6 6 6 6 6 6 6 5 5 5 5 5 5 5 5 5 5 5 6 6 5 5 5 5 5 5 4 5 5 5 5 5 5 5 5 5 5 4 4 3 3 2 2 2 1 1 1 1 1 2 2 2 3 5 6 7 7 7 7 7 7 8 9 5 7 5 5 4 4 4 4 4 5 5 5 6 6 6 7 7 7 7 8 8
6 6 6 6 6 6 6 6 6 5 5 5 5 5 5 4 5 5 5 5 6 6 5 5 5 5 4 4 3 3 3 4 4 4 4 4 4 4 4 3 3 3 2 2 3 3 3 5 4 3 3 3 4 5 7 7 7 7 7 6 7 10 10 10 7 6 8 5 4 5 4 4 5 5 5 5 6 6 6 6 7 8 8 8 8
7 7 7 6 6 6 6 6 6 5 5 5 5 5 5 5 5 5 5 5 5 5 4 4 4 4 4 5 5 5 4 5 5 5 5 4 4 4 4 5 4 4 3 3 4 4 5 5 6 5 5 5 5 6 6 7 7 7 6 6 9 10 10 10 7 9 7 4 5 4 4 4 4 4 4 5 5 6 6 7 7 7 7 8 8
6 6 6 6 6 6 6 6 6 6 6 6 6 6 6 6 5 5 5 5 5 4 4 4 3 4 5 5 6 6 6 6 6 6 6 5 5 5 5 5 5 5 6 7 6 6 6 5 5 5 6 6 6 6 6 6 6 6 7 9 10 10 10 10 7 9 10 7 4 4 3 4 4 4 4 4 5 5 7 8 7 7 7 7 7
Wind_Direction
172 159 152 159 161 160 160 159 158 155 149 138 132 136 137 140 145 149 150 152 148 153 152 153 149 141 139 137 136 135 130 128 127 125 121 118 115 118 118 110 107 104 108 105 99 94 87 84 80 70 59 49 50 58 42 36 41 38 26 27 25 23 6 354 351 344 347 347 343 341 346 347 342 349 346 345 344 346 342 350 351 350 352 351 346
166 154 151 157 161 161 157 157 156 156 146 139 135 133 135 138 147 149 148 143 150 149 150 147 144 143 139 140 140 137 136 131 133 127 121 121 119 117 117 114 112 111 106 100 96 90 83 82 80 72 58 56 45 43 32 33 38 33 34 24 23 7 6 354 349 341 336 338 344 342 348 352 343 351 351 345 344 344 349 355 352 354 355 352 347
155 145 151 156 158 157 157 157 156 156 144 136 140 144 140 145 150 148 145 144 148 153 148 149 150 145 144 146 145 143 139 136 132 129 127 127 124 120 117 117 117 121 119 113 104 98 93 90 86 77 69 74 67 54 40 31 27 34 27 22 15 1 354 352 341 338 335 333 340 342 351 350 352 350 353 347 343 343 348 355 352 349 353 349 345
153 146 153 157 156 157 158 155 155 153 140 140 147 148 146 150 154 152 151 151 153 152 152 153 149 149 146 146 145 144 139 137 137 135 132 128 128 126 126 126 124 119 117 113 107 100 97 95 92 88 87 72 60 57 41 36 39 27 18 16 10 0 346 342 345 330 328 326 344 347 349 350 353 350 352 348 347 344 349 351 348 350 348 347 344
151 158 159 158 158 158 156 154 151 143 139 145 149 149 150 154 158 157 154 152 147 149 152 149 151 148 149 149 147 144 143 143 139 134 132 134 129 130 132 127 123 115 106 104 99 97 93 87 83 84 82 78 66 59 52 37 35 32 16 8 5 359 346 344 336 333 326 332 341 350 351 354 352 349 352 350 348 346 346 348 348 349 347 344 339
152 161 158 157 159 156 153 154 147 140 141 145 148 151 153 156 157 157 155 147 148 152 151 153 152 151 154 150 146 145 145 143 140 140 138 136 135 130 126 127 123 122 120 110 103 99 98 92 87 81 74 71 65 56 49 44 37 32 20 5 0 352 344 342 339 333 333 339 349 349 353 357 352 353 354 351 347 345 346 345 342 347 344 342 344
156 164 162 160 158 155 152 145 140 139 145 147 148 151 152 155 160 158 150 148 152 152 154 152 154 156 152 148 150 146 144 145 143 141 141 139 135 134 133 129 127 121 117 110 106 104 99 90 82 68 65 63 57 39 34 48 46 37 18 5 358 354 345 348 342 339 343 347 356 355 352 357 357 350 353 350 347 347 346 341 342 348 347 344 347
160 164 161 160 157 155 153 143 138 141 145 149 153 150 150 160 158 150 148 150 155 155 155 154 153 155 149 152 148 146 145 145 145 147 143 140 138 138 134 132 127 122 114 112 109 104 97 88 73 61 57 43 38 43 30 22 10 44 22 8 359 354 352 347 348 347 346 358 0 357 356 352 356 352 347 348 347 348 350 343 339 342 342 342 347
162 164 162 157 154 152 152 157 145 144 148 154 151 149 155 158 152 151 149 154 156 156 153 153 155 151 153 151 148 148 150 147 152 151 145 144 141 140 140 135 132 126 124 119 118 110 100 87 78 76 69 69 49 47 44 19 10 33 22 11 3 360 355 352 353 352 348 358 1 1 356 357 356 351 350 352 350 345 339 340 337 341 339 339 346
163 162 161 155 152 151 152 152 156 148 155 157 151 149 154 157 154 152 154 155 156 153 154 154 154 153 155 151 148 150 149 146 79 125 146 144 145 143 137 136 134 132 127 126 120 112 106 101 103 118 134 137 119 88 57 35 25 21 16 18 10 2 359 353 355 355 347 357 2 359 357 359 355 354 351 345 339 336 337 340 340 343 340 341 339
162 163 158 155 155 156 156 157 150 148 153 151 147 147 153 156 155 156 155 156 155 154 155 157 156 158 155 152 151 152 143 95 80 59 67 125 143 139 142 139 136 132 133 135 132 133 138 139 144 157 159 157 156 157 138 156 170 260 307 350 347 0 359 351 349 355 349 354 357 360 359 356 351 351 351 340 340 338 338 338 341 343 347 344 349
160 161 157 157 159 159 158 157 143 147 152 151 150 151 156 160 160 160 159 157 156 156 159 157 158 157 156 153 153 150 118 97 83 72 57 33 8 136 142 141 144 143 145 145 146 149 145 144 131 145 179 157 160 164 176 185 185 202 208 214 226 252 263 304 337 348 348 344 354 0 356 357 344 352 346 341 339 333 339 338 342 345 344 345 350
160 160 161 162 163 160 151 143 142 148 151 149 149 151 160 169 168 171 170 162 158 161 162 159 158 160 159 157 156 140 132 107 97 92 71 22 16 338 147 149 150 147 147 149 149 152 152 150 146 140 135 225 246 177 177 182 198 199 195 203 226 232 244 251 252 272 311 326 350 351 1 345 345 348 344 336 333 333 336 336 341 344 342 339 349
163 160 161 162 161 152 144 144 146 148 149 149 149 157 167 176 172 173 170 170 166 164 162 159 160 162 161 159 154 140 137 119 115 104 83 27 8 343 157 151 143 138 143 145 157 156 159 158 154 151 140 90 49 357 339 297 196 197 192 199 210 206 225 229 235 244 251 273 332 348 348 347 338 334 333 334 336 338 334 331 336 342 339 338 346
160 159 159 159 158 151 147 144 145 147 147 150 156 166 174 175 175 174 174 177 171 166 161 162 162 163 162 161 151 139 133 127 117 110 86 26 351 318 159 132 131 140 141 151 156 146 137 128 131 138 127 89 52 8 341 334 323 323 342 328 315 192 185 102 341 345 329 315 339 337 323 325 319 313 316 327 338 331 327 321 333 338 329 330 343
149 147 144 147 150 151 148 145 146 148 153 159 164 171 179 177 174 175 176 177 173 164 162 164 164 166 164 160 149 135 132 130 125 135 116 239 315 289 130 144 141 143 148 148 156 156 154 160 150 139 128 104 71 23 8 330 309 303 350 351 346 123 128 174 216 229 254 287 285 283 285 272 266 267 282 292 304 325 323 320 335 336 336 342 346
146 143 142 147 150 150 147 146 149 155 160 163 173 179 182 178 178 179 178 179 172 166 167 164 166 167 164 163 144 136 143 149 144 141 165 206 315 251 155 159 154 156 157 159 157 159 168 163 172 156 144 99 68 3 357 336 299 291 6 315 336 343 0 172 199 214 229 242 252 260 263 269 271 268 264 264 256 280 317 338 346 340 341 342 343
147 145 147 150 151 151 153 154 155 160 161 170 176 184 185 177 181 176 182 180 173 169 165 165 168 167 168 156 143 147 151 152 153 158 163 192 202 225 179 182 160 166 156 171 173 151 77 51 346 236 136 105 79 4 352 334 299 344 318 320 304 352 348 340 318 238 219 235 242 245 248 252 255 259 260 259 259 263 348 342 342 341 342 342 341
154 152 149 149 148 152 162 164 159 161 166 177 182 184 180 179 177 179 183 180 170 169 165 165 166 163 160 146 140 153 159 162 171 168 177 191 187 238 248 173 172 167 169 182 180 149 140 107 51 31 67 101 81 357 347 341 319 14 314 299 329 336 358 331 316 316 319 312 295 251 255 238 244 295 342 213 226 317 345 337 337 345 339 340 339
160 155 153 152 152 158 164 161 159 160 170 182 188 176 166 178 178 181 180 175 170 166 168 161 157 152 147 148 153 162 160 160 180 171 187 194 198 225 265 182 181 174 185 180 186 174 162 160 134 122 116 118 93 330 324 340 324 333 318 339 342 335 349 324 304 301 296 322 327 329 330 347 345 343 351 357 8 359 337 345 345 339 334 331 341
147 148 151 158 160 159 157 159 157 163 168 181 178 160 176 176 175 182 167 140 101 81 77 95 123 133 149 156 159 164 164 165 178 184 189 204 204 205 258 233 177 182 193 180 199 181 182 181 159 145 158 148 173 140 298 309 310 302 317 3 348 343 321 296 296 285 293 324 330 337 340 349 352 356 0 359 355 355 348 351 350 339 334 337 337
103 93 113 141 148 148 151 148 152 153 155 166 168 172 177 146 114 96 107 111 123 137 137 145 154 163 167 171 165 170 162 169 167 189 192 206 213 209 243 264 20 225 195 196 203 190 200 177 148 159 165 161 177 205 279 292 307 298 49 344 307 308 298 290 288 290 327 328 340 342 347 351 353 3 2 350 350 355 352 352 346 336 340 341 334
121 116 118 132 139 147 152 151 152 155 159 171 165 171 150 144 147 144 137 149 157 163 165 170 172 168 168 171 170 174 169 174 173 180 193 205 216 226 238 281 311 314 233 199 219 194 193 112 121 150 163 163 185 197 247 287 275 298 16 305 292 288 285 274 271 298 327 331 333 340 348 351 351 1 355 341 347 353 352 352 343 343 348 340 327
146 152 160 159 155 148 148 152 151 145 142 142 163 164 167 163 160 166 169 171 174 177 178 177 178 176 177 180 180 182 174 181 174 181 184 199 214 226 216 241 269 300 334 300 219 218 199 144 137 155 157 169 185 203 239 258 293 332 291 282 282 284 280 276 280 330 308 329 339 339 350 351 352 353 349 342 344 343 350 351 344 344 343 333 329
149 152 162 161 155 153 146 148 153 155 156 157 159 160 160 160 162 167 173 178 177 179 180 183 187 184 185 186 185 187 185 183 176 177 179 190 208 219 210 230 261 297 270 8 35 31 69 106 134 150 157 176 192 220 240 248 254 263 273 271 272 272 263 265 327 307 320 329 344 334 342 352 343 352 336 329 333 338 346 347 338 344 343 339 334
142 143 149 149 149 144 142 148 154 155 154 160 160 158 157 164 170 170 175 184 184 184 186 186 191 189 188 190 191 190 189 190 178 174 179 187 201 213 209 208 242 263 291 309 8 67 348 123 132 139 149 175 204 223 233 233 212 225 243 258 268 264 276 326 316 321 319 329 332 329 336 340 335 340 322 324 342 341 342 343 336 345 342 342 338
148 144 139 142 143 146 146 152 155 159 160 160 162 161 162 172 178 177 180 186 189 190 190 187 191 192 192 193 193 190 190 192 187 173 181 187 195 191 194 211 205 239 271 252 217 196 175 188 153 184 246 188 220 275 293 291 195 219 231 237 247 256 253 280 332 305 304 313 321 327 334 329 326 326 330 331 343 342 340 340 337 339 337 343 342
153 153 148 150 150 151 151 144 153 161 166 167 169 171 175 183 183 185 187 187 188 190 193 191 192 197 195 195 191 193 193 195 195 184 181 187 191 195 197 205 205 212 221 224 221 217 199 151 142 200 219 215 218 225 228 231 235 235 239 232 226 228 162 116 261 278 264 301 302 322 312 325 323 327 326 334 344 340 337 338 336 332 335 333 340
155 145 138 136 137 142 144 150 162 162 164 173 177 182 187 189 183 185 194 192 191 193 195 188 194 200 200 194 192 198 203 198 201 178 180 180 183 191 193 199 201 202 208 210 213 205 209 199 207 209 219 219 221 224 222 221 225 229 233 249 269 250 232 230 227 228 256 305 314 316 311 325 320 318 330 334 341 337 334 331 329 329 329 334 339
149 145 142 144 146 149 154 162 165 163 166 168 179 114 37 52 52 181 184 197 144 60 69 184 180 200 197 202 202 203 206 204 163 149 156 165 162 142 160 169 171 198 173 171 253 222 204 207 211 211 216 220 221 228 232 226 223 224 230 205 234 278 270 279 286 270 288 308 298 295 313 314 308 321 325 333 331 328 322 324 330 326 326 336 338
154 155 155 161 158 160 157 155 161 166 171 173 180 155 151 79 46 29 73 129 100 92 73 54 48 42 31 216 90 44 109 128 136 142 139 126 113 110 102 101 98 90 131 165 215 235 215 212 221 227 222 229 227 226 232 243 252 257 270 247 217 234 231 253 269 289 289 276 278 287 298 304 312 317 321 320 321 315 316 329 326 326 332 337 343
160 161 164 161 154 153 159 163 168 172 177 183 184 176 174 149 85 45 37 73 90 88 82 69 62 56 47 32 39 75 66 106 126 130 130 123 118 114 109 102 99 97 65 108 204 215 225 236 235 236 234 230 234 243 242 242 233 231 230 247 253 246 230 246 246 250 275 281 289 308 309 303 305 305 306 307 302 307 320 326 325 330 333 338 345
162 161 158 152 156 158 167 171 175 173 180 183 186 180 182 184 166 130 59 47 66 76 74 75 78 69 61 59 63 86 99 102 104 117 124 123 115 110 106 104 105 111 107 172 212 219 223 231 236 236 236 240 237 230 230 237 249 249 246 240 230 233 241 242 216 244 268 277 283 280 277 280 289 300 303 304 309 315 315 317 319 326 334 337 339
163 162 160 158 163 168 173 175 177 176 181 184 190 181 183 186 171 160 156 150 93 60 57 58 91 88 73 79 92 103 104 102 104 105 111 115 118 115 101 84 72 42 1 217 213 229 235 237 240 241 237 236 235 232 233 238 240 242 242 245 252 254 244 236 234 246 242 248 258 277 293 305 315 309 308 309 305 305 310 316 317 326 333 333 329
182 145 149 163 172 171 174 177 180 182 183 186 193 198 172 170 176 183 184 172 164 167 186 129 62 87 99 86 86 87 88 90 97 104 104 111 116 116 100 107 134 188 210 229 232 227 228 238 251 255 252 246 243 242 242 237 240 248 252 254 256 252 253 245 243 257 274 279 281 296 314 313 303 300 303 305 310 313 317 314 318 325 326 324 320
173 145 149 159 170 171 174 173 168 183 184 182 186 182 154 164 190 183 169 168 171 170 174 177 145 70 88 95 93 85 82 79 79 94 115 122 142 150 166 195 196 208 210 216 226 238 246 246 243 247 251 251 254 250 237 241 243 248 253 253 249 252 255 261 265 263 262 278 304 303 294 289 295 296 293 294 297 302 301 305 315 316 310 306 309
168 155 152 160 166 170 170 162 180 187 181 182 187 153 155 175 194 187 167 173 174 165 137 107 98 97 91 116 115 116 116 112 106 100 106 136 182 204 218 211 215 214 216 216 219 225 235 246 257 262 263 259 251 249 248 243 246 246 246 252 266 267 267 269 292 321 326 305 296 293 290 284 277 274 274 284 296 300 305 307 308 302 296 295 291
174 160 166 169 170 166 167 178 187 162 162 165 176 163 177 183 162 144 123 108 112 124 148 161 158 158 166 158 153 132 117 118 117 105 101 107 157 229 247 256 240 233 227 227 223 223 226 234 241 244 252 260 263 261 261 266 259 259 253 237 228 244 258 289 324 297 271 264 261 258 262 272 286 296 297 297 300 302 300 300 299 293 294 289 287
189 141 145 151 179 174 177 183 174 166 168 176 172 173 171 163 141 141 140 150 173 188 196 162 163 167 159 146 153 136 133 145 158 157 151 155 180 209 231 249 254 249 250 248 243 235 236 236 237 244 252 252 252 257 267 271 275 274 273 279 279 271 211 218 231 239 250 266 280 292 300 302 302 302 302 302 298 296 296 302 301 296 294 297 293
164 98 137 144 181 164 167 175 163 171 169 186 187 181 174 172 171 174 172 167 183 190 185 165 171 166 154 156 156 163 169 165 171 166 166 166 180 194 207 225 236 240 240 251 265 273 267 259 259 255 249 253 267 274 269 266 264 269 271 282 297 298 291 272 269 271 280 291 298 301 297 296 297 297 296 295 298 305 311 306 300 291 278 279 292
175 129 125 151 162 181 172 173 173 179 171 179 188 176 180 177 176 171 183 179 179 182 173 172 176 174 171 161 166 173 169 176 172 176 175 180 181 191 202 210 218 228 232 242 254 260 264 263 260 260 271 274 267 263 257 257 258 268 289 309 298 281 278 278 283 285 276 266 267 281 294 300 298 295 297 309 325 315 297 292 289 293 309 318 312
175 145 148 163 147 184 175 181 175 179 153 157 177 190 187 185 191 174 161 165 167 185 177 179 175 184 147 160 169 173 177 186 185 183 180 171 177 191 199 208 210 217 224 229 237 245 255 268 281 283 274 269 261 265 279 296 317 328 321 298 278 272 273 271 269 272 289 301 299 288 292 300 307 310 303 292 288 291 299 301 308 314 308 305 306
149 139 157 163 173 182 177 177 167 150 148 177 177 147 158 184 192 177 166 171 164 176 175 173 168 180 155 168 168 180 197 188 179 182 181 167 175 189 199 208 210 210 211 220 229 238 240 236 253 264 266 262 259 256 258 267 270 272 264 256 257 258 262 269 275 288 299 308 318 353 352 327 315 303 302 302 301 300 306 317 317 310 307 311 317
121 130 139 149 154 149 151 153 146 152 160 153 143 169 188 188 186 165 160 158 161 162 166 169 175 153 129 145 157 180 198 191 186 195 189 169 179 192 201 205 211 213 214 209 217 219 228 227 227 239 248 259 287 317 314 310 320 291 283 284 289 304 307 308 329 351 7 353 338 324 312 303 298 298 302 308 319 324 319 314 311 317 326 318 309
121 131 138 138 133 133 136 148 148 149 145 156 173 172 186 186 185 182 166 161 162 164 173 177 169 145 139 149 164 179 189 189 188 183 179 178 186 193 201 203 207 211 207 199 200 204 211 222 225 246 349 313 312 311 292 279 268 267 292 327 329 336 7 24 18 5 353 341 322 317 314 315 319 318 317 324 323 316 315 326 328 323 310 309 316
122 125 132 136 136 142 143 141 130 136 146 161 169 169 171 170 177 180 178 163 152 153 154 157 158 151 149 153 161 172 186 191 193 197 198 199 199 204 207 216 215 195 187 188 198 208 205 196 107 254 223 246 260 250 252 252 295 49 43 45 39 36 21 8 1 344 340 346 338 323 320 327 327 318 326 330 333 337 328 323 315 314 319 316 313
130 131 134 140 145 145 148 147 153 156 157 164 175 165 170 191 183 154 145 128 132 138 149 157 157 163 163 164 171 181 185 193 198 195 203 212 211 209 213 215 202 190 197 198 194 151 104 95 75 328 251 268 286 291 335 52 69 62 54 44 37 27 22 347 333 355 6 354 338 327 330 319 315 320 348 354 333 322 320 313 316 322 321 322 319
131 136 147 145 142 141 142 144 132 126 125 125 125 119 118 109 112 122 129 120 125 139 143 149 158 153 157 157 163 176 186 194 194 197 201 208 213 209 199 196 196 179 158 135 118 110 129 154 170 129 97 80 59 62 68 65 64 61 61 54 40 23 2 347 357 14 1 337 324 318 317 322 336 341 340 332 321 318 317 324 329 324 327 322 316
135 128 124 129 128 129 127 127 127 133 132 136 126 128 129 137 138 139 139 142 141 145 147 151 149 145 148 154 145 149 161 176 189 196 206 209 199 191 186 152 130 143 144 144 145 133 95 73 75 83 87 75 66 63 61 59 58 59 56 53 26 14 12 4 1 10 339 330 337 335 338 348 353 346 331 324 323 327 331 331 330 329 318 316 315
144 149 147 148 150 141 134 139 147 146 135 129 130 128 134 140 146 149 142 139 139 141 146 145 150 157 161 163 171 181 180 182 186 191 197 194 179 163 139 142 156 162 174 153 118 100 95 90 81 74 72 71 68 65 63 59 57 53 51 36 20 18 12 2 7 5 354 347 333 323 341 357 348 336 327 324 337 344 337 337 330 319 318 318 314
124 131 134 139 133 132 137 138 145 145 147 150 158 154 159 158 155 145 139 132 129 128 127 136 149 171 185 189 180 183 183 189 189 187 180 174 173 173 169 161 161 157 119 103 103 102 96 94 88 83 80 79 75 73 69 67 61 55 45 32 27 17 14 8 0 346 340 338 324 314 357 352 339 339 336 350 349 343 341 325 322 328 323 317 317